Wind_Speed
34 35 35 36 36 37 37 37 38 38 38 38 37 36 36 35 34 34 34 33 32 32 32 31 30 30 29 29 29 29 28 28 27 27 27 27 27 26 25 25 25 25 25
36 36 36 36 37 37 38 38 39 39 40 40 39 38 38 37 36 36 36 35 34 33 34 33 32 31 31 31 30 30 30 30 29 29 29 29 28 28 27 27 26 26 26
36 37 38 38 39 39 40 39 40 41 41 41 41 40 40 40 39 38 37 37 36 35 34 35 34 33 33 32 31 31 31 32 31 31 30 30 30 29 29 28 28 28 28
37 38 39 40 41 41 41 42 42 42 43 43 43 42 42 41 41 40 39 39 38 37 37 36 35 35 35 34 34 33 32 33 33 32 32 32 32 31 31 30 30 30 30
40 40 40 41 42 43 43 44 45 45 45 45 45 44 43 43 42 41 41 41 39 38 38 37 37 36 36 36 36 35 34 34 33 33 33 34 33 33 33 32 32 32 31
41 42 42 43 44 44 45 45 45 46 46 47 47 46 45 45 44 44 43 43 42 40 40 39 38 39 38 37 37 36 36 36 35 35 35 35 35 35 35 35 34 34 34
43 43 44 44 44 44 45 45 46 47 47 48 49 49 48 47 46 46 45 44 44 43 43 41 40 40 40 40 39 38 37 37 37 37 37 37 37 37 37 37 37 37 36
45 45 45 45 45 45 46 47 47 47 48 49 50 50 49 49 49 48 47 47 46 45 44 44 43 42 43 42 42 41 40 39 39 39 39 39 38 38 38 38 38 38 38
46 46 47 47 46 45 46 48 48 47 48 49 50 50 50 50 50 49 48 47 47 47 46 45 45 44 44 44 44 44 43 42 42 42 41 40 40 40 39 39 39 39 40
46 46 47 47 47 46 46 47 48 48 48 48 49 50 51 51 51 50 50 49 48 48 47 47 46 46 45 46 46 46 46 45 45 44 44 43 43 42 42 41 41 41 41
46 46 47 47 47 47 47 47 48 49 49 48 49 50 51 52 51 51 51 50 49 49 49 49 48 48 47 48 48 48 48 48 47 47 46 46 45 45 44 43 43 43 43
47 47 48 48 48 48 47 47 48 48 49 49 49 49 50 51 52 52 52 51 50 50 50 50 50 50 50 50 50 50 50 50 49 48 48 48 47 46 46 46 45 45 45
47 47 48 48 49 49 49 48 48 48 48 49 49 48 49 50 52 52 52 52 51 51 51 51 51 52 51 52 51 51 51 51 51 51 50 50 50 49 48 48 47 47 47
48 48 47 48 49 49 49 49 49 49 48 49 49 49 49 50 51 52 52 52 52 52 52 52 52 52 52 52 53 52 52 53 53 52 52 52 52 51 50 50 49 49 49
50 50 50 49 49 49 50 50 50 50 50 50 50 50 50 50 51 52 53 53 53 52 52 52 53 53 53 53 53 53 54 53 54 53 53 53 53 53 52 52 52 51 51
50 51 49 49 49 49 50 50 50 50 50 50 51 51 50 50 51 52 52 53 53 53 52 51 52 53 53 53 53 54 54 55 55 55 55 55 54 54 54 54 54 53 53
48 49 48 48 48 49 49 49 50 50 51 52 52 51 51 50 51 51 52 52 53 54 53 52 52 52 53 53 54 55 54 54 55 55 55 55 55 55 55 55 55 55 54
49 48 48 48 48 48 49 49 50 51 52 53 53 52 53 52 51 51 52 52 54 54 54 54 53 53 53 53 53 54 54 54 55 55 56 55 55 55 55 55 55 56 56
52 50 49 49 49 48 49 49 50 50 51 52 52 53 54 54 53 53 53 54 54 55 55 54 53 53 52 52 52 53 54 53 54 55 56 56 56 55 56 56 56 56 56
53 52 51 50 50 50 50 50 50 51 51 51 52 53 54 54 54 54 55 56 56 56 56 54 53 54 54 53 53 53 53 53 53 54 55 55 56 56 56 56 57 56 56
52 51 51 51 51 51 51 51 52 52 52 52 53 54 55 55 56 56 55 56 56 57 57 57 55 55 54 55 55 55 54 54 53 54 55 56 57 57 57 56 56 57 57
51 51 50 50 50 50 50 51 52 52 53 54 54 54 56 56 57 57 56 57 57 57 58 58 57 56 55 55 56 56 56 56 55 54 55 55 56 56 56 57 57 57 57
51 51 51 51 51 51 51 51 51 52 53 54 54 55 56 56 57 57 57 57 57 57 58 58 58 57 57 57 58 58 58 58 57 57 57 56 56 56 57 58 59 59 59
52 52 53 52 52 52 53 53 53 52 53 53 54 55 56 56 57 57 57 57 57 57 57 58 59 58 57 57 58 58 58 59 58 57 57 57 57 57 57 58 59 60 61
52 53 54 53 53 53 53 52 52 52 52 53 54 55 56 57 57 58 58 58 57 57 58 58 59 59 58 58 59 59 59 59 58 58 59 59 57 57 58 58 59 60 60
50 51 52 53 53 53 53 52 52 52 52 53 53 54 54 56 57 57 57 57 57 56 56 57 58 59 59 59 59 59 60 60 60 59 59 60 59 59 59 59 59 61 62
Wind_Direction
261 260 260 259 259 258 256 254 253 251 250 251 251 251 251 251 252 252 254 255 254 255 255 257 258 259 260 260 260 260 260 260 259 259 260 261 263 264 265 266 266 268 270
262 262 261 261 259 258 256 254 253 252 252 251 252 252 252 253 253 253 254 255 255 256 256 256 258 259 259 260 259 259 259 259 259 259 260 261 262 264 264 265 267 267 269
263 263 263 261 260 258 257 256 255 254 252 252 252 252 252 253 253 253 253 254 255 256 257 257 257 258 258 259 259 259 259 260 259 259 260 261 262 263 264 265 267 267 268
263 264 264 263 261 260 260 258 256 255 253 253 253 252 252 253 253 253 253 254 254 255 256 257 256 256 257 258 259 259 260 261 258 259 260 261 261 263 264 265 267 268 268
264 264 264 264 263 261 261 259 257 256 255 254 253 253 252 252 252 252 253 253 254 255 256 257 257 255 256 257 258 259 259 260 259 259 260 261 261 262 264 265 267 268 269
264 264 264 264 263 263 261 259 258 257 256 254 253 253 253 253 253 252 253 253 254 254 255 257 257 255 255 256 257 258 259 259 259 259 261 261 262 262 263 265 266 268 269
265 265 265 264 264 263 261 259 258 257 256 255 254 253 252 252 253 253 253 253 254 256 256 256 257 256 255 255 256 258 258 259 260 260 261 262 262 263 264 265 266 267 268
265 266 266 265 265 263 261 259 258 257 257 256 254 253 252 251 252 253 253 253 254 255 256 256 256 257 256 256 256 257 258 259 261 261 261 262 263 264 264 266 266 267 266
266 267 267 266 265 263 261 259 258 258 257 255 254 253 252 251 252 252 252 253 254 254 255 256 256 256 255 255 256 257 257 258 260 261 262 262 262 264 265 266 266 266 266
267 267 266 265 265 265 262 260 259 259 258 257 255 254 253 252 252 252 252 253 254 255 255 255 256 256 256 255 255 256 257 258 260 261 262 262 262 264 265 265 265 266 266
267 267 266 265 264 265 263 261 260 260 259 258 257 256 254 253 253 253 252 253 253 254 255 255 256 256 257 257 257 257 257 258 260 261 262 262 263 263 264 264 265 265 266
266 267 266 265 264 263 263 262 261 261 261 259 257 257 255 255 255 254 253 253 253 254 255 256 256 257 257 258 258 258 258 259 260 261 262 263 263 263 264 264 265 265 266
266 266 265 265 264 263 262 262 261 261 260 259 258 257 255 255 255 254 254 254 254 255 255 255 256 257 257 257 258 259 259 260 260 261 262 263 262 262 263 264 264 265 265
266 266 265 265 264 263 262 262 261 260 260 259 258 257 256 256 256 255 255 255 256 256 255 255 256 257 257 257 258 259 259 259 260 261 262 263 263 263 263 263 263 264 265
264 264 264 265 264 263 262 261 261 261 260 259 258 257 256 257 257 256 256 257 257 257 257 257 257 257 257 257 258 260 260 260 260 261 261 262 263 263 263 263 263 264 264
264 263 264 265 264 263 262 261 261 261 260 260 259 257 257 258 257 256 257 257 257 258 258 258 259 259 259 259 259 260 261 261 261 261 261 262 262 262 263 264 264 264 264
266 264 263 264 264 263 262 261 261 260 260 260 259 257 256 257 256 257 258 258 258 258 258 259 260 260 260 261 261 261 262 262 262 262 262 262 261 261 262 263 264 264 264
265 263 263 263 264 264 263 262 261 260 260 260 259 257 256 256 256 258 258 258 258 259 259 260 261 261 261 261 261 261 262 263 263 263 263 262 262 262 262 262 263 263 263
265 264 264 264 263 263 263 262 261 260 260 260 259 258 256 256 257 259 259 259 259 259 259 260 261 261 261 261 261 262 262 263 263 263 263 263 263 263 264 263 262 262 263
266 265 265 265 265 264 264 263 263 262 261 260 259 257 257 257 258 259 259 259 259 259 259 259 260 261 261 261 262 262 262 262 263 264 264 264 264 264 264 263 263 263 263
266 266 266 266 266 266 266 265 264 263 262 261 260 259 259 259 259 259 260 260 259 259 258 258 259 259 260 260 261 261 262 262 263 264 264 264 264 264 264 264 264 264 264
266 266 266 266 267 267 268 266 265 264 263 262 262 261 260 260 260 259 259 259 259 259 258 258 258 259 260 261 262 262 261 262 263 264 264 264 264 264 264 264 265 265 265
266 266 266 267 267 267 268 268 267 266 264 263 263 262 261 261 260 259 259 258 259 259 259 258 259 260 261 262 263 264 264 264 264 264 264 264 264 265 265 265 265 266 266
266 266 267 267 268 268 268 268 268 267 266 264 263 263 262 262 261 260 259 259 259 259 260 259 259 260 261 262 264 265 265 265 265 265 265 266 265 265 265 265 265 266 266
267 267 267 267 268 268 268 268 268 267 266 265 265 264 263 262 262 261 261 260 260 260 260 260 260 260 260 262 264 264 265 265 265 266 266 266 265 265 265 265 265 265 266
268 268 267 267 267 268 268 268 267 267 267 266 264 264 263 262 262 262 262 261 260 261 261 261 261 261 262 263 264 265 265 265 266 266 267 267 266 266 266 265 266 266 267
Height
5777 5778 5779 5780 5781 5782 5783 5785 5787 5789 5792 5794 5797 5799 5801 5804 5806 5808 5810 5812 5813 5815 5816 5818 5819 5820 5822 5823 5824 5824 5825 5826 5827 5828 5829 5830 5831 5831 5832 5832 5832 5832 5832
5769 5770 5771 5771 5772 5773 5775 5776 5778 5780 5783 5785 5788 5790 5793 5795 5798 5800 5802 5804 5805 5807 5809 5810 5812 5813 5815 5816 5817 5818 5819 5820 5821 5821 5822 5823 5824 5825 5825 5826 5826 5826 5826
5760 5761 5762 5763 5763 5764 5765 5766 5768 5770 5773 5775 5778 5781 5784 5786 5789 5791 5793 5795 5797 5799 5801 5803 5804 5806 5807 5808 5809 5810 5811 5813 5814 5815 5815 5816 5817 5818 5818 5819 5819 5820 5820
5750 5751 5752 5753 5754 5754 5755 5757 5758 5760 5762 5765 5768 5771 5774 5776 5779 5782 5784 5786 5788 5790 5792 5794 5796 5797 5799 5800 5801 5803 5804 5805 5806 5807 5808 5809 5810 5811 5811 5812 5812 5813 5813
5740 5741 5742 5742 5743 5744 5745 5746 5748 5749 5751 5754 5757 5760 5763 5766 5768 5771 5774 5776 5779 5781 5783 5785 5787 5788 5790 5792 5793 5794 5795 5796 5797 5799 5800 5801 5802 5803 5804 5804 5805 5805 5805
5730 5730 5731 5731 5732 5733 5734 5734 5736 5738 5740 5742 5745 5748 5752 5755 5758 5760 5763 5766 5768 5771 5773 5775 5777 5779 5781 5782 5784 5785 5786 5788 5789 5790 5791 5792 5793 5794 5795 5796 5796 5797 5797
5719 5719 5720 5720 5720 5721 5722 5722 5724 5725 5727 5729 5733 5736 5740 5743 5746 5749 5752 5755 5758 5760 5763 5765 5767 5769 5771 5772 5774 5775 5777 5778 5779 5781 5782 5783 5784 5785 5786 5787 5788 5788 5788
5707 5708 5708 5708 5708 5708 5709 5710 5711 5712 5714 5717 5720 5723 5727 5732 5734 5737 5740 5743 5746 5749 5751 5754 5756 5758 5760 5762 5764 5765 5767 5768 5769 5771 5772 5773 5774 5776 5776 5777 5778 5779 5779
5695 5695 5695 5695 5696 5696 5697 5697 5698 5699 5702 5704 5707 5710 5714 5718 5722 5726 5728 5731 5734 5737 5739 5742 5744 5747 5748 5750 5752 5754 5756 5757 5759 5760 5762 5763 5764 5765 5766 5767 5768 5769 5770
5683 5683 5683 5683 5684 5684 5684 5685 5686 5687 5689 5692 5694 5697 5701 5704 5708 5713 5716 5719 5721 5724 5727 5730 5732 5734 5736 5738 5740 5742 5744 5745 5747 5749 5750 5752 5753 5754 5755 5756 5758 5759 5760
5671 5671 5671 5671 5671 5672 5672 5673 5674 5675 5677 5679 5682 5684 5687 5691 5694 5698 5703 5706 5709 5711 5714 5717 5719 5721 5723 5725 5728 5729 5731 5733 5735 5736 5738 5740 5741 5742 5744 5745 5746 5747 5749
5659 5659 5659 5659 5659 5659 5660 5661 5662 5663 5665 5667 5669 5671 5675 5678 5681 5684 5688 5692 5695 5698 5701 5703 5706 5708 5710 5712 5714 5716 5718 5720 5721 5723 5725 5727 5729 5730 5731 5733 5734 5735 5737
5647 5646 5646 5646 5646 5647 5648 5648 5650 5651 5653 5655 5657 5659 5661 5664 5667 5670 5674 5678 5681 5685 5687 5690 5692 5694 5696 5698 5700 5702 5704 5706 5708 5710 5712 5713 5715 5717 5718 5720 5721 5722 5724
5634 5634 5634 5633 5634 5634 5635 5636 5637 5639 5640 5642 5644 5646 5649 5652 5654 5657 5660 5664 5667 5670 5673 5676 5678 5680 5681 5683 5686 5687 5689 5692 5694 5695 5697 5699 5700 5702 5704 5706 5707 5709 5711
5621 5621 5621 5621 5621 5621 5622 5623 5625 5626 5627 5629 5631 5634 5636 5639 5641 5644 5647 5650 5653 5656 5659 5662 5664 5666 5667 5669 5671 5673 5675 5677 5678 5680 5682 5684 5686 5687 5690 5691 5693 5695 5697
5607 5607 5608 5608 5608 5608 5609 5610 5612 5613 5614 5616 5618 5621 5624 5626 5628 5631 5633 5636 5639 5641 5645 5648 5649 5651 5653 5654 5656 5658 5660 5661 5663 5665 5667 5669 5671 5672 5674 5676 5678 5680 5682
5594 5594 5594 5595 5595 5595 5596 5597 5599 5600 5601 5603 5605 5608 5610 5613 5615 5617 5620 5622 5625 5627 5630 5633 5635 5636 5638 5639 5641 5643 5644 5646 5647 5649 5651 5653 5655 5657 5659 5661 5663 5664 5666
5580 5581 5581 5582 5582 5582 5583 5584 5585 5587 5588 5590 5592 5594 5597 5599 5602 5604 5606 5608 5611 5613 5615 5618 5620 5622 5623 5625 5626 5628 5629 5631 5632 5633 5635 5637 5639 5640 5642 5644 5646 5648 5650
5566 5567 5567 5568 5569 5569 5570 5571 5572 5573 5574 5576 5578 5580 5583 5585 5587 5589 5592 5594 5596 5598 5600 5603 5605 5607 5609 5610 5611 5613 5614 5615 5617 5618 5619 5621 5623 5624 5626 5628 5630 5632 5634
5552 5553 5554 5554 5555 5555 5556 5557 5558 5559 5561 5562 5564 5566 5568 5570 5572 5574 5576 5578 5580 5582 5585 5588 5590 5592 5594 5595 5596 5598 5599 5601 5602 5603 5604 5605 5607 5608 5610 5612 5615 5616 5618
5538 5539 5540 5540 5541 5541 5542 5543 5543 5545 5546 5548 5549 5551 5553 5555 5556 5558 5560 5562 5564 5567 5569 5572 5575 5577 5579 5580 5582 5583 5584 5585 5587 5588 5589 5590 5592 5593 5594 5596 5598 5600 5602
5523 5524 5525 5526 5527 5527 5527 5528 5529 5530 5531 5533 5534 5536 5538 5539 5541 5543 5545 5547 5549 5551 5554 5556 5559 5562 5564 5565 5566 5567 5569 5570 5573 5575 5574 5575 5576 5578 5579 5581 5582 5584 5585
5509 5510 5511 5512 5512 5513 5513 5513 5514 5515 5516 5518 5519 5520 5522 5524 5525 5527 5529 5531 5533 5535 5538 5541 5543 5546 5548 5549 5550 5552 5553 5554 5556 5557 5557 5560 5561 5562 5563 5564 5566 5567 5569
5495 5495 5496 5497 5497 5498 5498 5498 5499 5499 5501 5502 5503 5504 5506 5507 5509 5511 5513 5515 5517 5519 5522 5524 5528 5530 5531 5532 5533 5535 5536 5538 5540 5541 5541 5544 5545 5546 5547 5548 5549 5551 5552
5480 5480 5481 5481 5482 5482 5483 5483 5483 5484 5485 5486 5487 5488 5489 5491 5493 5495 5497 5499 5501 5503 5504 5506 5509 5512 5514 5515 5517 5518 5519 5521 5523 5525 5525 5526 5528 5529 5531 5532 5533 5534 5535
5464 5465 5465 5466 5466 5467 5467 5467 5467 5469 5470 5471 5472 5473 5474 5475 5476 5477 5479 5482 5484 5486 5488 5490 5492 5495 5497 5498 5500 5501 5502 5504 5505 5508 5509 5509 5511 5511 5514 5516 5517 5517 5517